"Period start","avg(HW err(1)/warn(2) (#))","avg(Visibility (m))","avg(Weather code (#))","avg(Precip intensity (mm/h))","min(HW err(1)/warn(2) (#))","max(HW err(1)/warn(2) (#))","std(HW err(1)/warn(2) (#))","med(HW err(1)/warn(2) (#))","min(Visibility (m))","max(Visibility (m))","std(Visibility (m))","med(Visibility (m))","min(Weather code (#))","max(Weather code (#))","std(Weather code (#))","med(Weather code (#))","min(Precip intensity (mm/h))","max(Precip intensity (mm/h))","std(Precip intensity (mm/h))","med(Precip intensity (mm/h))"
2013-08-21 00:00:00,2,40513,0,0.00,2,2,0,2,31772,50000,5966,41944,0,0,0,0,0.00,0.00,0.00,0.00
2013-08-21 00:10:00,2,33312,0,0.00,2,2,0,2,27299,42603,4570,31812,0,0,0,0,0.00,0.00,0.00,0.00
2013-08-21 00:20:00,2,47289,0,0.00,2,2,0,2,43598,50000,2482,47890,0,0,0,0,0.00,0.00,0.00,0.00
2013-08-21 00:30:00,2,43497,0,0.00,2,2,0,2,38884,48040,3383,43218,0,0,0,0,0.00,0.00,0.00,0.00
2013-08-21 00:40:00,2,36814,0,0.00,2,2,0,2,26962,46235,5071,36354,0,0,0,0,0.00,0.00,0.00,0.00
2013-08-21 00:50:00,2,40198,0,0.00,2,2,0,2,29015,50000,6874,39322,0,0,0,0,0.00,0.00,0.00,0.00
2013-08-21 01:00:00,2,44984,0,0.00,2,2,0,2,40605,50000,2827,44804,0,0,0,0,0.00,0.00,0.00,0.00
2013-08-21 01:10:00,2,36617,0,0.00,2,2,0,2,25150,45730,6553,37904,0,0,0,0,0.00,0.00,0.00,0.00
2013-08-21 01:20:00,2,37015,0,0.00,2,2,0,2,23980,50000,8338,36054,0,0,0,0,0.00,0.00,0.00,0.00
2013-08-21 01:30:00,2,45620,0,0.00,2,2,0,2,38116,50000,4676,47014,0,0,0,0,0.00,0.00,0.00,0.00
2013-08-21 01:40:00,2,47063,0,0.00,2,2,0,2,41387,50000,2780,47116,0,0,0,0,0.00,0.00,0.00,0.00
2013-08-21 01:50:00,2,46459,0,0.00,2,2,0,2,39953,50000,3317,47708,0,0,0,0,0.00,0.00,0.00,0.00
2013-08-21 02:00:00,2,46326,0,0.00,2,2,0,2,39859,50000,3308,47226,0,0,0,0,0.00,0.00,0.00,0.00
2013-08-21 02:10:00,2,43116,0,0.00,2,2,0,2,24320,50000,7573,45555,0,0,0,0,0.00,0.00,0.00,0.00
2013-08-21 02:20:00,2,40021,0,0.00,2,2,0,2,29181,48554,7066,42921,0,0,0,0,0.00,0.00,0.00,0.00
2013-08-21 02:30:00,2,35586,0,0.00,2,2,0,2,28188,40859,3888,35908,0,0,0,0,0.00,0.00,0.00,0.00
2013-08-21 02:40:00,2,34587,0,0.00,2,2,0,2,27259,41218,5001,33472,0,0,0,0,0.00,0.00,0.00,0.00
2013-08-21 02:50:00,2,39816,0,0.00,2,2,0,2,28665,45786,4970,42159,0,0,0,0,0.00,0.00,0.00,0.00
2013-08-21 03:00:00,2,39558,0,0.00,2,2,0,2,31366,49067,5545,38572,0,0,0,0,0.00,0.00,0.00,0.00
2013-08-21 03:10:00,2,47452,0,0.00,2,2,0,2,41994,50000,3238,49110,0,0,0,0,0.00,0.00,0.00,0.00
2013-08-21 03:20:00,2,37422,0,0.00,2,2,0,2,19993,49428,8345,38632,0,0,0,0,0.00,0.00,0.00,0.00
2013-08-21 03:30:00,2,26733,0,0.00,2,2,0,2,17309,37000,6200,25490,0,0,0,0,0.00,0.00,0.00,0.00
2013-08-21 03:40:00,2,40417,0,0.00,2,2,0,2,26490,50000,8748,43473,0,0,0,0,0.00,0.00,0.00,0.00
2013-08-21 03:50:00,2,47874,0,0.00,2,2,0,2,45641,50000,1515,47380,0,0,0,0,0.00,0.00,0.00,0.00
2013-08-21 04:00:00,2,45611,0,0.00,2,2,0,2,34269,50000,5139,47484,0,0,0,0,0.00,0.00,0.00,0.00
2013-08-21 04:10:00,2,45214,0,0.00,2,2,0,2,34416,50000,4902,47042,0,0,0,0,0.00,0.00,0.00,0.00
2013-08-21 04:20:00,2,23916,8,0.00,2,2,0,2,7704,44528,10462,24085,0,41,16,0,0.00,0.00,0.00,0.00
2013-08-21 04:30:00,2,22785,20,0.03,2,2,0,2,4292,44961,14396,19461,0,61,26,0,0.00,0.15,0.05,0.00
2013-08-21 04:40:00,2,26240,33,0.21,2,2,0,2,2904,50000,20427,24180,10,52,19,40,0.00,1.40,0.42,0.00
2013-08-21 04:50:00,2,48832,3,0.00,2,2,0,2,42007,50000,2392,50000,0,10,5,0,0.00,0.00,0.00,0.00
2013-08-21 05:00:00,2,49046,0,0.00,2,2,0,2,46711,50000,1196,49686,0,0,0,0,0.00,0.00,0.00,0.00
2013-08-21 05:10:00,2,23506,0,0.00,2,2,0,2,5853,50000,16501,16158,0,0,0,0,0.00,0.00,0.00,0.00
2013-08-21 05:20:00,2,34083,0,0.00,2,2,0,2,7248,48836,14980,41244,0,0,0,0,0.00,0.00,0.00,0.00
2013-08-21 05:30:00,2,40171,0,0.00,2,2,0,2,6303,50000,15504,48410,0,0,0,0,0.00,0.00,0.00,0.00
2013-08-21 05:40:00,2,49739,0,0.00,2,2,0,2,48446,50000,534,50000,0,0,0,0,0.00,0.00,0.00,0.00
2013-08-21 05:50:00,2,21221,14,0.01,2,2,0,2,2554,50000,17644,19290,0,51,20,0,0.00,0.05,0.02,0.00
2013-08-21 06:00:00,2,9990,41,0.69,2,2,0,2,2479,32916,9388,5162,10,61,25,61,0.00,3.55,1.10,0.10
2013-08-21 06:10:00,2,34557,6,0.00,2,2,0,2,19393,49319,9829,32092,0,10,5,10,0.00,0.00,0.00,0.00
2013-08-21 06:20:00,2,36367,0,0.00,2,2,0,2,14858,49008,12105,41346,0,0,0,0,0.00,0.00,0.00,0.00
2013-08-21 06:30:00,2,37934,0,0.00,2,2,0,2,18152,50000,10554,40398,0,0,0,0,0.00,0.00,0.00,0.00
2013-08-21 06:40:00,2,19662,28,0.16,2,2,0,2,4827,48774,17601,8460,0,52,24,40,0.00,0.95,0.31,0.00
2013-08-21 06:50:00,2,20731,10,0.00,2,2,0,2,2748,49558,17038,13994,10,10,0,10,0.00,0.00,0.00,0.00
2013-08-21 07:00:00,2,8621,23,0.06,2,2,0,2,2199,17832,4950,8538,0,41,18,25,0.00,0.45,0.13,0.00
2013-08-21 07:10:00,2,9882,13,0.01,2,2,0,2,4353,18925,3628,9778,10,40,9,10,0.00,0.10,0.03,0.00
2013-08-21 07:20:00,2,6053,59,0.96,2,2,0,2,2557,18048,4484,4225,40,61,6,61,0.00,5.35,1.54,0.35
2013-08-21 07:30:00,2,2665,61,1.09,2,2,0,2,1707,4789,852,2408,61,61,0,61,0.05,5.30,1.43,0.75
2013-08-21 07:40:00,2,16214,44,1.25,2,2,0,2,1864,50000,17717,5568,0,67,29,61,0.00,7.05,2.20,0.03
2013-08-21 07:50:00,2,17750,12,0.01,2,2,0,2,6633,43278,12652,11018,0,41,19,0,0.00,0.05,0.02,0.00
2013-08-21 08:00:00,2,6750,38,0.62,2,2,0,2,2755,18236,4668,4526,0,52,20,46,0.00,1.85,0.63,0.38
2013-08-21 08:10:00,2,15548,33,0.08,2,2,0,2,5675,45026,12454,9774,10,61,23,30,0.00,0.40,0.13,0.00
2013-08-21 08:20:00,2,10623,22,0.02,2,2,0,2,5630,23011,5034,9224,0,61,24,10,0.00,0.10,0.03,0.00
2013-08-21 08:30:00,2,17532,3,0.00,2,2,0,2,6885,32021,8965,12901,0,10,5,0,0.00,0.00,0.00,0.00
2013-08-21 08:40:00,2,41062,0,0.00,2,2,0,2,25592,50000,8425,43530,0,0,0,0,0.00,0.00,0.00,0.00
2013-08-21 08:50:00,2,18900,13,0.38,2,2,0,2,4592,44342,14682,11318,0,52,20,0,0.00,2.40,0.73,0.00
2013-08-21 09:00:00,2,5836,48,1.23,2,2,0,2,4319,8175,1131,6156,10,61,19,56,0.00,3.05,0.95,1.05
2013-08-21 09:10:00,2,9928,36,0.12,2,2,0,2,5841,23891,5245,8144,10,61,26,36,0.00,0.85,0.25,0.00
2013-08-21 09:20:00,2,7296,10,0.00,2,2,0,2,2986,12884,2471,6880,10,10,0,10,0.00,0.00,0.00,0.00
2013-08-21 09:30:00,2,9501,50,0.20,2,2,0,2,3984,14356,3258,8892,10,61,15,52,0.00,0.85,0.28,0.08
2013-08-21 09:40:00,2,10530,6,0.00,2,2,0,2,4100,27783,6808,7356,0,10,5,10,0.00,0.00,0.00,0.00
2013-08-21 09:50:00,2,7034,55,0.43,2,2,0,2,4923,10090,1650,6974,51,61,5,52,0.00,0.90,0.29,0.38
2013-08-21 10:00:00,2,18242,23,0.07,2,2,0,2,8034,46802,12823,10874,0,51,23,10,0.00,0.35,0.11,0.00
2013-08-21 10:10:00,2,17608,0,0.00,2,2,0,2,11446,25392,5130,18224,0,0,0,0,0.00,0.00,0.00,0.00
2013-08-21 10:20:00,2,21396,0,0.00,2,2,0,2,11625,31442,6883,23372,0,0,0,0,0.00,0.00,0.00,0.00
2013-08-21 10:30:00,2,25901,0,0.00,2,2,0,2,19948,34692,5213,26300,0,0,0,0,0.00,0.00,0.00,0.00
2013-08-21 10:40:00,2,12428,0,0.00,2,2,0,2,8058,20984,4606,9840,0,0,0,0,0.00,0.00,0.00,0.00
2013-08-21 10:50:00,2,13499,12,0.00,2,2,0,2,9284,15985,2492,14434,0,41,19,0,0.00,0.00,0.00,0.00
2013-08-21 11:00:00,2,14609,34,0.10,2,2,0,2,10997,17685,2066,14626,0,51,22,46,0.00,0.55,0.16,0.00
2013-08-21 11:10:00,2,25770,0,0.00,2,2,0,2,14777,35760,5778,26774,0,0,0,0,0.00,0.00,0.00,0.00
2013-08-21 11:20:00,2,24284,0,0.00,2,2,0,2,15802,34967,7322,20284,0,0,0,0,0.00,0.00,0.00,0.00
2013-08-21 11:30:00,2,25846,0,0.00,2,2,0,2,21155,29958,3069,26474,0,0,0,0,0.00,0.00,0.00,0.00
2013-08-21 11:40:00,2,33630,0,0.00,2,2,0,2,27969,38908,3499,34032,0,0,0,0,0.00,0.00,0.00,0.00
2013-08-21 11:50:00,2,23297,0,0.00,2,2,0,2,21355,27345,1692,23114,0,0,0,0,0.00,0.00,0.00,0.00
2013-08-21 12:00:00,2,28368,0,0.00,2,2,0,2,23829,32684,2463,28377,0,0,0,0,0.00,0.00,0.00,0.00
2013-08-21 12:10:00,2,32386,0,0.00,2,2,0,2,25988,36321,2699,32588,0,0,0,0,0.00,0.00,0.00,0.00
2013-08-21 12:20:00,2,31164,0,0.00,2,2,0,2,23597,35012,3456,31324,0,0,0,0,0.00,0.00,0.00,0.00
2013-08-21 12:30:00,2,36149,0,0.00,2,2,0,2,30048,43234,4766,35060,0,0,0,0,0.00,0.00,0.00,0.00
2013-08-21 12:40:00,2,36068,0,0.00,2,2,0,2,27445,46886,5778,35426,0,0,0,0,0.00,0.00,0.00,0.00
2013-08-21 12:50:00,2,34963,0,0.00,2,2,0,2,29927,40220,3236,34838,0,0,0,0,0.00,0.00,0.00,0.00
2013-08-21 13:00:00,2,36824,0,0.00,2,2,0,2,32715,43357,3588,36716,0,0,0,0,0.00,0.00,0.00,0.00
2013-08-21 13:10:00,2,35741,0,0.00,2,2,0,2,32677,39537,2259,35425,0,0,0,0,0.00,0.00,0.00,0.00
2013-08-21 13:20:00,2,41941,0,0.00,2,2,0,2,36366,46434,3435,40944,0,0,0,0,0.00,0.00,0.00,0.00
2013-08-21 13:30:00,2,37521,0,0.00,2,2,0,2,31877,43833,3226,37738,0,0,0,0,0.00,0.00,0.00,0.00
2013-08-21 13:40:00,2,36384,0,0.00,2,2,0,2,26586,42987,5828,37875,0,0,0,0,0.00,0.00,0.00,0.00
2013-08-21 13:50:00,2,39824,0,0.00,2,2,0,2,32850,47699,3904,39834,0,0,0,0,0.00,0.00,0.00,0.00
2013-08-21 14:00:00,2,33643,0,0.00,2,2,0,2,27393,38071,3777,34094,0,0,0,0,0.00,0.00,0.00,0.00
2013-08-21 14:10:00,2,36865,0,0.00,2,2,0,2,32516,44418,4001,36201,0,0,0,0,0.00,0.00,0.00,0.00
2013-08-21 14:20:00,2,43178,0,0.00,2,2,0,2,38206,49178,3495,43020,0,0,0,0,0.00,0.00,0.00,0.00
2013-08-21 14:30:00,2,47082,0,0.00,2,2,0,2,41700,50000,2842,47672,0,0,0,0,0.00,0.00,0.00,0.00
2013-08-21 14:40:00,2,44254,0,0.00,2,2,0,2,36691,50000,4450,45521,0,0,0,0,0.00,0.00,0.00,0.00
2013-08-21 14:50:00,2,39977,0,0.00,2,2,0,2,33495,46769,4819,39554,0,0,0,0,0.00,0.00,0.00,0.00
2013-08-21 15:00:00,2,42740,0,0.00,2,2,0,2,34665,50000,4702,42556,0,0,0,0,0.00,0.00,0.00,0.00
2013-08-21 15:10:00,2,45825,0,0.00,2,2,0,2,37957,50000,4570,47376,0,0,0,0,0.00,0.00,0.00,0.00
2013-08-21 15:20:00,2,39781,0,0.00,2,2,0,2,33642,42436,2772,41187,0,0,0,0,0.00,0.00,0.00,0.00
2013-08-21 15:30:00,2,39230,0,0.00,2,2,0,2,32641,44442,3378,39334,0,0,0,0,0.00,0.00,0.00,0.00
2013-08-21 15:40:00,2,44968,0,0.00,2,2,0,2,33829,49797,4697,46104,0,0,0,0,0.00,0.00,0.00,0.00
2013-08-21 15:50:00,2,36722,0,0.00,2,2,0,2,28799,44066,4586,35782,0,0,0,0,0.00,0.00,0.00,0.00
2013-08-21 16:00:00,2,41262,0,0.00,2,2,0,2,33752,46932,4476,42022,0,0,0,0,0.00,0.00,0.00,0.00
2013-08-21 16:10:00,2,42024,0,0.00,2,2,0,2,36773,47259,3506,41960,0,0,0,0,0.00,0.00,0.00,0.00
2013-08-21 16:20:00,2,39533,0,0.00,2,2,0,2,32413,48374,4254,39526,0,0,0,0,0.00,0.00,0.00,0.00
2013-08-21 16:30:00,2,41956,0,0.00,2,2,0,2,37701,46265,3017,42048,0,0,0,0,0.00,0.00,0.00,0.00
2013-08-21 16:40:00,2,45315,0,0.00,2,2,0,2,35390,48551,3703,46394,0,0,0,0,0.00,0.00,0.00,0.00
2013-08-21 16:50:00,2,40232,0,0.00,2,2,0,2,33450,48880,4137,39664,0,0,0,0,0.00,0.00,0.00,0.00
2013-08-21 17:00:00,2,44816,0,0.00,2,2,0,2,40590,50000,3163,45428,0,0,0,0,0.00,0.00,0.00,0.00
2013-08-21 17:10:00,2,43814,0,0.00,2,2,0,2,38601,50000,3615,43416,0,0,0,0,0.00,0.00,0.00,0.00
2013-08-21 17:20:00,2,39020,0,0.00,2,2,0,2,36075,42621,1925,38459,0,0,0,0,0.00,0.00,0.00,0.00
2013-08-21 17:30:00,2,39443,0,0.00,2,2,0,2,35944,42624,2250,39246,0,0,0,0,0.00,0.00,0.00,0.00
2013-08-21 17:40:00,2,42170,0,0.00,2,2,0,2,33792,49244,4638,42939,0,0,0,0,0.00,0.00,0.00,0.00
2013-08-21 17:50:00,2,43551,0,0.00,2,2,0,2,33825,50000,4429,43846,0,0,0,0,0.00,0.00,0.00,0.00
2013-08-21 18:00:00,2,43362,0,0.00,2,2,0,2,35284,48875,4552,43908,0,0,0,0,0.00,0.00,0.00,0.00
2013-08-21 18:10:00,2,43231,0,0.00,2,2,0,2,37209,50000,3975,43580,0,0,0,0,0.00,0.00,0.00,0.00
2013-08-21 18:20:00,2,38247,0,0.00,2,2,0,2,32181,41417,2810,39395,0,0,0,0,0.00,0.00,0.00,0.00
2013-08-21 18:30:00,2,44072,0,0.00,2,2,0,2,36316,49445,3677,43654,0,0,0,0,0.00,0.00,0.00,0.00
2013-08-21 18:40:00,2,40037,0,0.00,2,2,0,2,34020,44649,3574,41714,0,0,0,0,0.00,0.00,0.00,0.00
2013-08-21 18:50:00,2,37883,0,0.00,2,2,0,2,33266,44730,3654,37503,0,0,0,0,0.00,0.00,0.00,0.00
2013-08-21 19:00:00,2,37257,0,0.00,2,2,0,2,29867,44810,4551,36902,0,0,0,0,0.00,0.00,0.00,0.00
2013-08-21 19:10:00,2,47769,0,0.00,2,2,0,2,43463,50000,1940,47842,0,0,0,0,0.00,0.00,0.00,0.00
2013-08-21 19:20:00,2,41567,0,0.00,2,2,0,2,35444,50000,5055,38928,0,0,0,0,0.00,0.00,0.00,0.00
2013-08-21 19:30:00,2,36702,0,0.00,2,2,0,2,32193,42323,2828,36494,0,0,0,0,0.00,0.00,0.00,0.00
2013-08-21 19:40:00,2,39024,0,0.00,2,2,0,2,31978,49186,4847,37742,0,0,0,0,0.00,0.00,0.00,0.00
2013-08-21 19:50:00,2,39784,0,0.00,2,2,0,2,33386,48792,4809,38056,0,0,0,0,0.00,0.00,0.00,0.00
2013-08-21 20:00:00,2,43441,0,0.00,2,2,0,2,38637,50000,4173,41633,0,0,0,0,0.00,0.00,0.00,0.00
2013-08-21 20:10:00,2,43442,0,0.00,2,2,0,2,35853,49087,3786,43758,0,0,0,0,0.00,0.00,0.00,0.00
2013-08-21 20:20:00,2,39688,0,0.00,2,2,0,2,35197,46796,3862,39174,0,0,0,0,0.00,0.00,0.00,0.00
2013-08-21 20:30:00,2,45521,0,0.00,2,2,0,2,37347,50000,4067,45833,0,0,0,0,0.00,0.00,0.00,0.00
2013-08-21 20:40:00,2,42214,0,0.00,2,2,0,2,36929,46822,3030,42070,0,0,0,0,0.00,0.00,0.00,0.00
2013-08-21 20:50:00,2,36500,0,0.00,2,2,0,2,29802,41185,3204,36790,0,0,0,0,0.00,0.00,0.00,0.00
2013-08-21 21:00:00,2,38168,0,0.00,2,2,0,2,32409,46827,4700,37319,0,0,0,0,0.00,0.00,0.00,0.00
2013-08-21 21:10:00,2,39220,0,0.00,2,2,0,2,34727,44162,3066,39112,0,0,0,0,0.00,0.00,0.00,0.00
2013-08-21 21:20:00,2,38443,0,0.00,2,2,0,2,33076,43469,3010,38608,0,0,0,0,0.00,0.00,0.00,0.00
2013-08-21 21:30:00,2,38667,0,0.00,2,2,0,2,30672,45703,4839,37930,0,0,0,0,0.00,0.00,0.00,0.00
2013-08-21 21:40:00,2,42649,0,0.00,2,2,0,2,36585,49827,3722,42287,0,0,0,0,0.00,0.00,0.00,0.00
2013-08-21 21:50:00,2,37554,0,0.00,2,2,0,2,29265,47335,5002,37730,0,0,0,0,0.00,0.00,0.00,0.00
2013-08-21 22:00:00,2,42358,0,0.00,2,2,0,2,33340,50000,4341,41937,0,0,0,0,0.00,0.00,0.00,0.00
2013-08-21 22:10:00,2,44179,0,0.00,2,2,0,2,38394,50000,3998,44207,0,0,0,0,0.00,0.00,0.00,0.00
2013-08-21 22:20:00,2,42534,0,0.00,2,2,0,2,37319,49604,3795,43025,0,0,0,0,0.00,0.00,0.00,0.00
2013-08-21 22:30:00,2,44871,0,0.00,2,2,0,2,34720,50000,4944,46474,0,0,0,0,0.00,0.00,0.00,0.00
2013-08-21 22:40:00,2,48187,0,0.00,2,2,0,2,44745,50000,1480,48236,0,0,0,0,0.00,0.00,0.00,0.00
2013-08-21 22:50:00,2,43888,0,0.00,2,2,0,2,36218,50000,4954,44041,0,0,0,0,0.00,0.00,0.00,0.00
2013-08-21 23:00:00,2,43913,0,0.00,2,2,0,2,36652,50000,3903,43894,0,0,0,0,0.00,0.00,0.00,0.00
2013-08-21 23:10:00,2,47060,0,0.00,2,2,0,2,41120,50000,2843,47954,0,0,0,0,0.00,0.00,0.00,0.00
2013-08-21 23:20:00,2,48316,0,0.00,2,2,0,2,44535,50000,1953,49026,0,0,0,0,0.00,0.00,0.00,0.00
2013-08-21 23:30:00,2,48088,0,0.00,2,2,0,2,45469,50000,1796,48345,0,0,0,0,0.00,0.00,0.00,0.00
2013-08-21 23:40:00,2,46019,0,0.00,2,2,0,2,39486,50000,3951,47309,0,0,0,0,0.00,0.00,0.00,0.00
2013-08-21 23:50:00,2,43123,0,0.00,2,2,0,2,36354,50000,4156,42494,0,0,0,0,0.00,0.00,0.00,0.00
